Location: Rounton
(54.4000°N, 1.3500°W)
Time: 06:45:19
(UTC+01:00)

deb Agena D - Pass Details

Date: 17 June 2023
Orbit: 996 x 1023 km, 100.1° (Epoch: 29 September)

Event Time Altitude Azimuth Distance (km) Brightness Sun altitude
Exits shadow 02:59:24 - 228° (SW) 2,948 ? -8.5°
Reaches altitude 10° 03:00:07 10° 233° (SW) 2,770 ? -8.5°
Maximum altitude 03:04:10 18° 274° (W) 2,254 ? -8.2°
Drops below altitude 10° 03:08:13 10° 315° (NW) 2,776 ? -7.9°
Sets 03:11:40 0° 334° (NNW) 3,730 ? -7.7°
